EW8816 Weather Reports


time (UTC)temp
F
wind
direction
speed
knots
gust
knots
rain 1hr
in
rain 24hr
in
rain mn
in
humidity
%
barometer
mb
20211017160040 58 295 1.7 5.2 0.00 0.36 0.21 60 1005.1
20211017155521 57 316 1.7 5.2 0.00 0.36 0.21 59 1005.2
20211017155024 58 326 1.7 4.3 0.00 0.36 0.21 60 1005.2
20211017154541 57 314 1.7 5.2 0.00 0.36 0.21 61 1005.2
20211017154024 57 269 1.7 5.2 0.00 0.36 0.21 61 1005.2
20211017153522 57 300 0.9 6.1 0.00 0.36 0.21 61 1005.3
20211017153050 57 305 2.6 6.1 0.00 0.36 0.21 61 1005.3
20211017152523 57 327 1.7 5.2 0.00 0.36 0.21 63 1005.5
20211017152026 56 328 1.7 5.2 0.00 0.36 0.21 64 1005.6
20211017151554 56 326 2.6 5.2 0.00 0.36 0.21 63 1005.5
20211017151027 56 328 1.7 6.1 0.00 0.36 0.21 65 1005.5
20211017150523 56 331 1.7 6.1 0.00 0.36 0.21 64 1005.6
20211017150105 56 330 1.7 5.2 0.00 0.36 0.21 66 1005.6
20211017145529 56 333 1.7 5.2 0.00 0.36 0.21 65 1005.6
20211017145022 56 324 1.7 5.2 0.00 0.36 0.21 65 1005.6
20211017144546 55 321 1.7 4.3 0.00 0.36 0.21 68 1005.5
20211017144020 55 337 0.9 3.5 0.00 0.36 0.21 71 1005.5
20211017143534 55 302 0.9 3.5 0.00 0.36 0.21 71 1005.6
20211017143049 55 337 0.9 3.5 0.00 0.36 0.21 71 1005.5
20211017142529 55 322 0.0 4.3 0.00 0.36 0.21 72 1005.4
20211017142025 54 285 1.7 4.3 0.00 0.36 0.21 72 1005.4
20211017141552 54 335 0.0 3.5 0.00 0.36 0.21 74 1005.5
20211017141020 54 305 0.9 3.5 0.00 0.36 0.21 73 1005.5
20211017140530 54 295 0.9 5.2 0.00 0.36 0.21 75 1005.5
20211017140033 54 317 0.9 5.2 0.00 0.36 0.21 77 1005.4
20211017135521 53 316 0.9 4.3 0.00 0.36 0.21 77 1005.4
20211017135019 53 290 0.9 3.5 0.00 0.36 0.21 79 1005.4
20211017134603 53 321 0.9 6.1 0.00 0.36 0.21 79 1005.4
20211017134025 53 309 2.6 6.1 0.00 0.36 0.21 81 1005.2
20211017133524 53 324 1.7 4.3 0.00 0.36 0.21 83 1005.0
20211017133038 52 323 0.9 2.6 0.00 0.36 0.21 88 1005.1
20211017132520 52 289 0.9 2.6 0.00 0.36 0.21 89 1005.0
20211017132020 52 325 0.9 3.5 0.00 0.36 0.21 90 1005.0
20211017131528 52 338 0.0 3.5 0.00 0.36 0.21 93 1005.0
20211017131020 52 309 0.0 1.7 0.00 0.36 0.21 94 1004.9
20211017130538 52 0 0.0 1.7 0.00 0.36 0.21 94 1004.9
20211017130031 51 330 0.0 1.7 0.00 0.36 0.21 94 1004.9
20211017125519 51 0 0.0 0.9 0.00 0.36 0.21 95 1004.9
20211017125019 51 321 0.0 1.7 0.00 0.36 0.21 95 1005.1
20211017124544 51 321 0.0 1.7 0.00 0.36 0.21 96 1005.0
20211017124022 51 307 0.0 0.9 0.00 0.36 0.21 97 1005.1
20211017123527 50 0 0.0 0.9 0.00 0.36 0.21 97 1005.0
20211017123047 50 0 0.0 0.9 0.00 0.36 0.21 97 1005.0
20211017122519 50 320 0.0 0.9 0.00 0.36 0.21 97 1004.9
20211017122035 50 320 0.0 0.9 0.00 0.36 0.21 97 1004.9
20211017121629 50 320 0.0 1.7 0.00 0.36 0.21 97 1004.9
20211017121023 50 0 0.0 1.7 0.00 0.36 0.21 97 1004.9
20211017120522 50 319 0.0 0.9 0.00 0.36 0.21 97 1004.8
20211017120029 50 0 0.0 0.9 0.00 0.36 0.21 97 1004.7
20211017115522 50 319 0.0 0.9 0.00 0.36 0.21 97 1004.7
20211017115026 50 0 0.0 0.9 0.00 0.36 0.21 97 1004.7
20211017114540 50 319 0.0 0.9 0.00 0.36 0.21 97 1004.6
20211017114027 50 0 0.0 0.9 0.00 0.36 0.21 97 1004.6
20211017113528 50 319 0.0 0.9 0.00 0.36 0.21 97 1004.5
20211017113115 50 0 0.0 0.9 0.00 0.36 0.21 97 1004.5
20211017112532 50 0 0.0 0.9 0.00 0.36 0.21 97 1004.5
20211017112022 50 319 0.0 1.7 0.00 0.36 0.21 97 1004.3
20211017111554 50 319 0.0 1.7 0.00 0.36 0.21 97 1004.3
20211017111023 50 319 0.0 1.7 0.00 0.36 0.21 97 1004.2
20211017110524 50 315 0.0 0.9 0.00 0.36 0.21 97 1004.1
20211017110058 50 315 0.0 0.9 0.00 0.36 0.21 97 1004.0
20211017105526 50 315 0.0 0.9 0.00 0.36 0.21 97 1003.9
20211017105026 50 315 0.0 0.9 0.00 0.36 0.21 97 1003.8
20211017104541 50 0 0.0 0.9 0.00 0.36 0.21 97 1003.8
20211017104023 51 0 0.0 0.9 0.00 0.36 0.21 97 1003.7
20211017103537 51 315 0.0 0.9 0.00 0.36 0.21 97 1003.7
20211017103040 51 0 0.0 0.9 0.00 0.36 0.21 97 1003.6
20211017102546 51 315 0.0 0.9 0.00 0.36 0.21 97 1003.6
20211017102023 51 314 0.0 0.9 0.00 0.36 0.21 97 1003.5
20211017101530 51 314 0.0 0.9 0.00 0.36 0.21 97 1003.5
20211017101024 52 0 0.0 0.9 0.00 0.36 0.21 97 1003.5
20211017100524 52 314 0.0 0.9 0.00 0.36 0.21 97 1003.5
20211017100148 52 302 0.0 0.9 0.00 0.36 0.21 97 1003.7
20211017095530 52 0 0.0 0.0 0.00 0.36 0.21 97 1003.8
20211017095023 53 0 0.0 0.9 0.00 0.36 0.21 97 1004.0
20211017094549 53 0 0.0 0.9 0.00 0.36 0.21 97 1004.1
20211017094044 53 0 0.0 0.9 0.00 0.36 0.21 97 1004.0
20211017093530 53 0 0.0 0.0 0.00 0.36 0.21 97 1003.7
20211017093035 53 0 0.0 0.0 0.00 0.36 0.21 97 1003.5
20211017092522 53 0 0.0 0.9 0.00 0.36 0.21 97 1003.6
20211017092023 54 0 0.0 0.9 0.00 0.36 0.21 97 1003.4
20211017091538 54 302 0.0 0.9 0.00 0.36 0.21 97 1003.3
20211017091022 54 0 0.0 0.9 0.00 0.36 0.21 98 1003.3
20211017090522 54 302 0.0 0.9 0.00 0.36 0.21 98 1003.0
20211017090035 54 0 0.0 0.9 0.00 0.36 0.21 98 1003.0
20211017085523 54 0 0.0 0.9 0.00 0.36 0.21 98 1003.1
20211017085020 54 0 0.0 0.9 0.00 0.36 0.21 97 1003.0
20211017084532 54 0 0.0 0.0 0.01 0.36 0.21 97 1002.7
20211017084024 54 0 0.0 0.0 0.01 0.36 0.21 97 1002.7
20211017083524 55 0 0.0 0.0 0.02 0.36 0.21 97 1002.7
20211017083056 55 0 0.0 0.0 0.03 0.36 0.21 97 1002.5
20211017082526 55 0 0.0 0.9 0.04 0.36 0.21 97 1002.2
20211017082019 55 0 0.0 0.9 0.05 0.36 0.21 97 1002.4
20211017081533 55 302 0.0 0.9 0.06 0.36 0.21 97 1002.4
20211017081020 55 294 0.0 0.9 0.07 0.36 0.21 98 1003.0
20211017080522 55 295 0.0 0.9 0.07 0.36 0.21 97 1001.9
20211017080122 55 0 0.0 1.7 0.08 0.36 0.21 98 1003.2
20211017075528 55 0 0.0 1.7 0.08 0.36 0.21 98 1003.4
20211017075020 55 0 0.0 0.9 0.08 0.36 0.21 98 1003.2
20211017074529 55 322 0.0 0.9 0.07 0.35 0.20 98 1003.5
20211017074021 55 0 0.0 0.9 0.07 0.35 0.20 98 1003.3
20211017073520 55 0 0.0 0.9 0.06 0.34 0.19 97 1002.9
20211017073025 56 0 0.0 0.9 0.06 0.33 0.18 97 1003.1
20211017072533 56 0 0.0 0.0 0.05 0.32 0.17 98 1003.2
20211017072023 56 0 0.0 0.9 0.04 0.30 0.15 98 1003.3
20211017071531 56 0 0.0 0.9 0.04 0.30 0.15 98 1003.3
20211017071020 56 0 0.0 0.0 0.03 0.29 0.14 98 1003.2
20211017070523 56 0 0.0 0.0 0.03 0.29 0.14 98 1003.1
20211017070051 56 0 0.0 0.0 0.02 0.28 0.13 97 1002.9
20211017065520 56 0 0.0 0.0 0.03 0.28 0.13 97 1002.8
20211017065020 56 0 0.0 0.0 0.04 0.28 0.13 97 1002.8
20211017064545 56 0 0.0 0.0 0.05 0.28 0.13 97 1002.8
20211017064020 56 0 0.0 0.0 0.05 0.28 0.13 97 1002.9
20211017063528 56 0 0.0 0.0 0.04 0.27 0.12 97 1003.2
20211017063027 56 0 0.0 0.0 0.04 0.27 0.12 97 1003.2
20211017062520 56 0 0.0 0.0 0.04 0.27 0.12 97 1003.2
20211017062037 56 0 0.0 0.9 0.04 0.26 0.11 97 1003.5
20211017061609 56 323 0.0 0.9 0.04 0.26 0.11 97 1003.2
20211017061020 56 0 0.0 0.9 0.04 0.26 0.11 97 1003.4
20211017060520 56 0 0.0 0.9 0.04 0.26 0.11 97 1003.3
20211017060029 56 0 0.0 0.9 0.04 0.26 0.11 97 1003.6
20211017055544 56 0 0.0 0.9 0.04 0.25 0.10 97 1003.5
20211017055028 56 323 0.0 0.9 0.04 0.24 0.09 97 1003.4
20211017054543 56 0 0.0 0.9 0.04 0.23 0.08 97 1003.8
20211017054019 57 0 0.0 0.9 0.04 0.23 0.08 97 1004.1
20211017053521 57 0 0.0 0.9 0.04 0.23 0.08 97 1004.2
20211017053049 56 0 0.0 0.9 0.04 0.23 0.08 97 1003.9
20211017052520 56 323 0.0 0.9 0.05 0.23 0.08 97 1003.8
20211017052020 56 0 0.0 0.9 0.05 0.22 0.07 97 1003.7
20211017051555 56 0 0.0 0.9 0.06 0.22 0.07 97 1003.6
20211017051022 57 0 0.0 0.9 0.06 0.22 0.07 97 1003.9
20211017050519 57 323 0.0 0.9 0.07 0.22 0.07 96 1003.7
20211017050040 57 323 0.0 0.9 0.07 0.22 0.07 97 1003.9
20211017045548 57 323 0.0 0.9 0.06 0.21 0.06 97 1004.0
20211017045020 57 0 0.0 0.9 0.06 0.20 0.05 97 1003.9
20211017044558 57 0 0.0 0.9 0.05 0.19 0.04 96 1003.8
20211017044019 57 0 0.0 0.9 0.06 0.19 0.04 96 1003.9
20211017043522 57 323 0.0 0.9 0.07 0.19 0.04 96 1004.1
20211017043109 57 0 0.0 1.7 0.09 0.19 0.04 96 1004.0
20211017042520 58 323 0.0 1.7 0.08 0.18 0.03 96 1003.9
20211017042030 58 304 0.0 1.7 0.08 0.17 0.02 95 1004.5
20211017041605 58 323 0.0 1.7 0.07 0.16 0.01 96 1004.2
20211017041020 58 323 0.0 0.9 0.07 0.16 0.01 96 1004.5
20211017040544 58 347 0.0 1.7 0.06 0.15 0.00 96 1004.4
20211017040136 58 310 0.0 1.7 0.07 0.15 0.00 96 1004.4
20211017035524 59 325 0.0 1.7 0.08 0.15 0.15 97 1004.0
20211017035028 59 0 0.0 1.7 0.09 0.14 0.14 97 1004.1
20211017034547 59 0 0.0 1.7 0.11 0.14 0.14 97 1004.1
20211017034020 59 326 0.0 1.7 0.09 0.12 0.12 97 1004.1
20211017033522 59 326 0.0 1.7 0.09 0.12 0.12 97 1004.2
20211017033032 59 308 0.0 1.7 0.07 0.10 0.10 97 1004.3
20211017032520 59 295 0.0 1.7 0.07 0.10 0.10 97 1004.3
20211017032028 59 0 0.0 1.7 0.06 0.09 0.09 96 1004.1
20211017031604 59 333 0.9 1.7 0.06 0.09 0.09 96 1003.9
20211017031039 59 333 0.0 1.7 0.06 0.09 0.09 96 1004.1
20211017030528 59 333 0.0 0.9 0.06 0.09 0.09 96 1004.0
20211017030045 59 0 0.0 1.7 0.07 0.08 0.08 95 1004.1
20211017025521 60 0 0.0 1.7 0.06 0.06 0.06 95 1004.3
20211017025036 60 320 0.0 1.7 0.04 0.04 0.04 95 1004.2
20211017024528 60 307 0.0 0.9 0.03 0.03 0.03 94 1003.8
20211017024020 60 322 0.0 1.7 0.03 0.03 0.03 94 1003.7
20211017023519 60 0 0.9 1.7 0.03 0.03 0.03 93 1003.4
20211017023051 61 319 0.0 2.6 0.03 0.03 0.03 92 1003.5
20211017022520 61 0 0.0 2.6 0.03 0.03 0.03 91 1003.5
20211017022023 62 326 0.9 4.3 0.03 0.03 0.03 90 1003.5
20211017021550 63 0 1.7 7.0 0.03 0.03 0.03 88 1003.8
20211017021024 65 330 1.7 7.8 0.03 0.03 0.03 86 1003.6
20211017020518 67 278 0.9 7.8 0.03 0.03 0.03 86 1003.3
20211017020028 68 271 1.7 6.1 0.00 0.00 0.00 84 1003.3
20211017015521 68 27 0.9 3.5 0.00 0.00 0.00 84 1002.5
20211017015021 68 51 0.0 1.7 0.00 0.00 0.00 84 1002.7
20211017014642 68 0 0.0 1.7 0.00 0.00 0.00 84 1003.0
20211017014028 68 316 0.0 1.7 0.00 0.00 0.00 85 1003.1
20211017013525 68 357 0.0 1.7 0.00 0.00 0.00 85 1003.1
20211017013051 68 0 0.0 3.5 0.00 0.00 0.00 85 1003.2
20211017012521 68 0 0.0 3.5 0.00 0.00 0.00 85 1003.3
20211017012022 68 346 0.0 1.7 0.00 0.00 0.00 85 1003.2
20211017011531 68 0 0.0 1.7 0.00 0.00 0.00 85 1003.2
20211017011031 68 21 0.0 1.7 0.00 0.00 0.00 85 1003.3
20211017010525 68 347 0.0 1.7 0.00 0.00 0.00 85 1003.4
20211017010034 68 0 0.0 1.7 0.00 0.00 0.00 85 1003.5
20211017005537 68 0 0.0 0.9 0.00 0.00 0.00 84 1003.6
20211017005021 68 0 0.0 0.9 0.00 0.00 0.00 84 1003.6
20211017004544 68 0 0.0 1.7 0.00 0.00 0.00 84 1003.8
20211017004021 68 0 0.0 3.5 0.00 0.00 0.00 84 1003.7
20211017003519 67 0 0.0 3.5 0.00 0.00 0.00 84 1003.8
20211017003037 67 0 0.0 0.9 0.00 0.00 0.00 83 1003.8
20211017002524 67 0 0.0 0.9 0.00 0.00 0.00 83 1003.9
20211017002019 68 340 0.0 0.9 0.00 0.00 0.00 82 1003.7
20211017001548 68 0 0.0 2.6 0.00 0.00 0.00 82 1003.8
20211017001027 68 0 0.0 2.6 0.00 0.00 0.00 81 1003.7
20211017000519 68 0 0.0 1.7 0.00 0.00 0.00 81 1003.7
20211017000036 68 0 0.0 3.5 0.00 0.00 0.00 81 1003.6
20211016235518 68 89 0.0 3.5 0.00 0.00 0.00 80 1003.6
20211016235021 68 0 0.0 3.5 0.00 0.00 0.00 80 1003.6
20211016234545 68 304 0.0 6.1 0.00 0.00 0.00 79 1003.6
20211016234029 68 82 0.0 6.1 0.00 0.00 0.00 79 1003.7
20211016233528 68 79 0.9 5.2 0.00 0.00 0.00 79 1003.9
20211016233034 68 11 0.0 2.6 0.00 0.00 0.00 78 1003.9
20211016232540 68 312 0.9 3.5 0.00 0.00 0.00 78 1004.0
20211016232022 69 0 0.9 3.5 0.00 0.00 0.00 78 1004.0
20211016231540 69 302 0.0 2.6 0.00 0.00 0.00 77 1004.1
20211016231022 69 6 0.0 2.6 0.00 0.00 0.00 77 1004.2
20211016230528 69 297 0.9 2.6 0.00 0.00 0.00 77 1004.2
20211016230034 69 279 0.9 3.5 0.00 0.00 0.00 78 1004.2
20211016225523 69 0 0.9 3.5 0.00 0.00 0.00 78 1004.0
20211016225022 68 0 0.0 3.5 0.00 0.00 0.00 78 1003.9
20211016224546 68 269 0.0 1.7 0.00 0.00 0.00 78 1003.9
20211016224023 69 0 0.0 2.6 0.00 0.00 0.00 78 1003.9
20211016223533 68 0 0.9 2.6 0.00 0.00 0.00 78 1003.8
20211016223044 69 32 0.0 2.6 0.00 0.00 0.00 79 1003.8
20211016222534 69 311 0.0 2.6 0.00 0.00 0.00 79 1003.8
20211016222022 69 340 0.0 1.7 0.00 0.00 0.00 79 1003.9
20211016221538 69 306 0.0 1.7 0.00 0.00 0.00 79 1004.0
20211016221031 69 0 0.0 1.7 0.00 0.00 0.00 79 1004.0
20211016220525 69 350 0.0 1.7 0.00 0.00 0.00 79 1003.9
20211016220057 69 312 0.0 2.6 0.00 0.00 0.00 79 1003.9
20211016215526 70 0 0.0 2.6 0.00 0.00 0.00 78 1003.9
20211016215023 70 323 0.0 0.9 0.00 0.00 0.00 78 1003.9
20211016214612 70 21 0.0 1.7 0.00 0.00 0.00 77 1003.8
20211016214046 70 349 0.0 1.7 0.00 0.00 0.00 76 1003.8
20211016213527 70 356 0.0 2.6 0.00 0.00 0.00 76 1003.8
20211016213057 70 0 0.0 2.6 0.00 0.00 0.00 76 1003.9
20211016212524 70 15 0.0 3.5 0.00 0.00 0.00 76 1003.9
20211016212022 70 339 0.9 4.3 0.00 0.00 0.00 76 1003.9
20211016211535 70 288 0.0 4.3 0.00 0.00 0.00 76 1003.9
20211016211023 70 356 0.0 2.6 0.00 0.00 0.00 76 1004.0
20211016210550 71 21 0.9 2.6 0.00 0.00 0.00 75 1004.0
20211016210051 71 308 0.0 2.6 0.00 0.00 0.00 75 1004.0
20211016205523 71 0 0.0 2.6 0.00 0.00 0.00 74 1004.2
20211016205023 71 267 0.0 3.5 0.00 0.00 0.00 74 1004.2
20211016204551 71 292 0.9 3.5 0.00 0.00 0.00 74 1004.2
20211016204023 71 281 0.0 2.6 0.00 0.00 0.00 73 1004.3
20211016203522 71 290 0.0 1.7 0.00 0.00 0.00 74 1004.4
20211016203037 71 0 0.0 4.3 0.00 0.00 0.00 75 1004.6
20211016202523 71 298 0.0 4.3 0.00 0.00 0.00 74 1004.6
20211016202036 71 111 0.9 3.5 0.00 0.00 0.00 74 1004.5
20211016201532 71 310 0.9 3.5 0.00 0.00 0.00 74 1004.5
20211016201023 71 298 0.0 2.6 0.00 0.00 0.00 75 1004.6
20211016200524 71 11 0.0 3.5 0.00 0.00 0.00 74 1004.8
20211016200111 71 21 0.9 4.3 0.00 0.00 0.00 73 1005.0
20211016195532 71 40 0.9 4.3 0.00 0.00 0.00 73 1004.9
20211016195023 71 321 0.9 4.3 0.00 0.00 0.00 73 1004.9
20211016194556 72 297 0.9 5.2 0.00 0.00 0.00 72 1005.0
20211016194028 72 336 1.7 5.2 0.00 0.00 0.00 72 1005.0
20211016193523 72 271 0.0 2.6 0.00 0.00 0.00 73 1005.0
20211016193031 72 0 0.9 3.5 0.00 0.00 0.00 73 1005.0
20211016192522 72 293 0.9 3.5 0.00 0.00 0.00 72 1005.1
20211016192022 72 297 0.9 4.3 0.00 0.00 0.00 72 1005.1
20211016191557 73 135 0.9 4.3 0.00 0.00 0.00 71 1005.2
20211016191023 73 41 0.9 5.2 0.00 0.00 0.00 71 1005.2
20211016190524 73 266 1.7 5.2 0.00 0.00 0.00 70 1005.2
20211016190101 73 284 1.7 4.3 0.00 0.00 0.00 71 1005.3
20211016185523 73 252 1.7 4.3 0.00 0.00 0.00 72 1005.4
20211016185032 72 315 0.9 3.5 0.00 0.00 0.00 72 1005.5
20211016184538 72 174 0.9 4.3 0.00 0.00 0.00 73 1005.6
20211016184023 73 308 0.9 5.2 0.00 0.00 0.00 72 1005.3
20211016183522 73 243 0.9 5.2 0.00 0.00 0.00 71 1005.3
20211016183105 73 263 0.0 3.5 0.00 0.00 0.00 73 1005.6
20211016182528 73 297 0.9 4.3 0.00 0.00 0.00 72 1005.6
20211016182023 73 266 0.9 4.3 0.00 0.00 0.00 71 1005.7
20211016181610 73 326 0.9 4.3 0.00 0.00 0.00 70 1005.9
20211016181023 74 330 1.7 4.3 0.00 0.00 0.00 69 1005.8
20211016180522 74 285 1.7 7.0 0.00 0.00 0.00 68 1005.7
20211016180120 74 0 0.9 7.0 0.00 0.00 0.00 70 1005.7
20211016175531 74 253 0.9 3.5 0.00 0.00 0.00 70 1005.9
20211016175023 74 283 0.9 3.5 0.00 0.00 0.00 71 1005.8
20211016174609 73 317 0.0 3.5 0.00 0.00 0.00 73 1006.0
20211016174024 73 56 0.9 3.5 0.00 0.00 0.00 73 1005.9
20211016173524 73 284 0.0 2.6 0.00 0.00 0.00 74 1006.0
20211016173049 73 293 0.0 5.2 0.00 0.00 0.00 74 1006.0
20211016172523 73 312 0.0 5.2 0.00 0.00 0.00 74 1006.1
20211016172023 73 320 0.0 3.5 0.00 0.00 0.00 74 1006.1
20211016171541 73 297 0.0 3.5 0.00 0.00 0.00 73 1006.3
20211016171026 73 240 0.0 1.7 0.00 0.00 0.00 75 1006.4
20211016170523 73 0 0.0 2.6 0.00 0.00 0.00 74 1006.6
20211016170045 72 306 0.0 2.6 0.00 0.00 0.00 75 1006.9
20211016165530 73 285 0.0 2.6 0.00 0.00 0.00 75 1006.9
20211016165024 73 70 0.0 3.5 0.00 0.00 0.00 75 1007.1
20211016164605 73 269 0.9 3.5 0.00 0.00 0.00 73 1007.2
20211016164026 73 0 0.0 2.6 0.00 0.00 0.00 74 1007.4
20211016163530 73 256 0.9 3.5 0.00 0.00 0.00 73 1007.4
20211016163037 73 294 0.9 4.3 0.00 0.00 0.00 74 1007.5
20211016162526 73 53 1.7 4.3 0.00 0.00 0.00 72 1007.5
20211016162023 73 336 0.9 3.5 0.00 0.00 0.00 73 1007.6
20211016161558 73 0 0.0 4.3 0.00 0.00 0.00 74 1007.5
20211016161033 73 302 0.0 4.3 0.00 0.00 0.00 74 1007.6
20211016160534 73 80 0.9 3.5 0.00 0.00 0.00 73 1007.7